This is the latest recevied weather packets stored in our database for station/object DL3SDW-13. If no packets are shown the sender has not sent any weather packets the latest 10 day(s).
| Time | Temp. | Humidity | Pressure | Rain* | Wind** | Luminosity | Snow |
|---|---|---|---|---|---|---|---|
| 1777246781 | 23.89° C | 27% | 1026 hPa | - | - | - | - |
| 1777231869 | 25° C | 25% | 1025 hPa | - | - | - | - |
| 1777224414 | 25.56° C | 24% | 1025 hPa | - | - | - | - |
| 1777216957 | 25° C | 22% | 1025 hPa | - | - | - | - |
| 1777209503 | 25° C | 26% | 1026 hPa | - | - | - | - |
| 1777202047 | 23.33° C | 26% | 1026 hPa | - | - | - | - |
| 1777194588 | 25° C | 29% | 1027 hPa | - | - | - | - |
| 1777187131 | 25° C | 31% | 1027 hPa | - | - | - | - |
| 1777172220 | 24.44° C | 32% | 1025 hPa | - | - | - | - |
| 1777164763 | 24.44° C | 32% | 1024 hPa | - | - | - | - |
| 1777157305 | 25° C | 32% | 1024 hPa | - | - | - | - |
| 1777149850 | 25.56° C | 32% | 1022 hPa | - | - | - | - |
| 1777142392 | 25° C | 32% | 1021 hPa | - | - | - | - |
| 1777134936 | 25° C | 34% | 1020 hPa | - | - | - | - |
| 1777127482 | 23.89° C | 34% | 1020 hPa | - | - | - | - |
| 1777120023 | 23.89° C | 34% | 1021 hPa | - | - | - | - |
| 1777112567 | 23.33° C | 34% | 1022 hPa | - | - | - | - |
| 1777105113 | 23.89° C | 33% | 1023 hPa | - | - | - | - |
| 1777097656 | 23.33° C | 33% | 1023 hPa | - | - | - | - |
| 1777090201 | 22.78° C | 35% | 1022 hPa | - | - | - | - |
| 1777082743 | 23.33° C | 35% | 1022 hPa | - | - | - | - |
| 1777075285 | 23.33° C | 34% | 1023 hPa | - | - | - | - |
| 1777067831 | 23.89° C | 33% | 1023 hPa | - | - | - | - |
| 1777060375 | 23.89° C | 33% | 1022 hPa | - | - | - | - |
| 1777052916 | 23.33° C | 33% | 1022 hPa | - | - | - | - |
* Rain since midnight (hover to see other rain measurements)
** Current wind speed in m/s (hover to see current wind gust speed)